Regional Weather Roundup
Issued by NWS

Home | Current Version | Previous Version | Graphics & Text | Print | Product List | Glossary On
Versions: 1 2 3 4 5 6 7 8 9 10 11 12 13 14 15 16 17 18 19 20 21 22 23 24 25 26 27 28 29 30 31 32 33 34 35 36 37 38 39 40 41 42 43 44 45 46 47 48 49 50
000
ASUS43 KIND 291709
RWRIN

WEATHER ROUNDUP FOR INDIANA
NATIONAL WEATHER SERVICE INDIANAPOLIS IN
100 PM EDT WED JUL 29 2015

NOTE: "FAIR" INDICATES FEW OR NO CLOUDS BELOW 12,000 FEET WITH NO
SIGNIFICANT WEATHER AND/OR OBSTRUCTIONS TO VISIBILITY.

* - STATION DOES NOT REPORT WEATHER SUCH AS PRECIPITATION OR FOG.

+ - STATION NOT QUALITY CONTROLLED BY THE NATIONAL WEATHER SERVICE.
    USE DATA WITH CAUTION...ESPECIALLY DEWPOINT AND RELATIVE
    HUMIDITY OBSERVATIONS.

INZ001>003-010>013-019-020-291800-
NORTHWEST INDIANA

CITY           SKY/WX    TMP DP  RH WIND       PRES   REMARKS
GARY /AIRPORT/ CLOUDY    81  73  78 N13       29.99R
KNOX *+        PTSUNNY   81  73  78 NW8       29.97S
LA PORTE +     CLOUDY    82  74  77 NW10      29.99S
MICHIGAN CITY+ CLOUDY    79  70  73 NW5       29.99S
MONTICELLO +   CLOUDY    82  75  78 W7        29.98S
RENSSELAER +   PTSUNNY   82  77  83 NW7       29.99S
VALPARAISO     PTSUNNY   84  73  69 N8        29.99R

$$

LMZ046-743>745-291800-
SOUTHERN LAKE MICHIGAN

STATION/POSITION TIME  TEMP    WIND        PRES    WAVE
                       AIR SEA DIR/SP/G            HT
                 (UTC) (F)     (DEG/KT/KT) (MB)    (FT)
BURNS HARBOR     1600   76     310/  7/  9 1015.6R
MICHIGAN CITY    1600   75     240/ 10/ 11   N/A
5NW MICH CITY    1700   76 75  320/ 10/ 12   N/A     1

$$

INZ004-005-014>016-021>024-291800-
NORTH CENTRAL INDIANA

CITY           SKY/WX    TMP DP  RH WIND       PRES   REMARKS
ELKHART        PTSUNNY   84  73  70 NW10      29.97S
GOSHEN         CLOUDY    83  74  74 W7        29.96S
LOGANSPORT +   CLOUDY    81  68  65 W6        29.99S
PERU/GRISSOM   CLOUDY    84  73  71 W10       29.97S
ROCHESTER +    CLOUDY    86  77  74 NW8       29.98S HX  97
SOUTH BEND     CLOUDY    83  73  72 NW12      29.98R
WARSAW +       PTSUNNY   82  73  74 NW6       29.97S

$$

INZ006>009-017-018-025>027-291800-
NORTHEAST INDIANA

CITY           SKY/WX    TMP DP  RH WIND       PRES   REMARKS
ANGOLA *+      PTSUNNY   90  75  62 W7        29.96R HX 100
AUBURN +       PTSUNNY   88  73  62 S7        29.97S HX  96
FORT WAYNE     LGT RAIN  84  75  74 W10       29.96F
HUNTINGTON +   PTSUNNY   85  75  71 W7        29.96F

$$

INZ028-029-035-036-043>045-051>053-291800-
WEST CENTRAL INDIANA

CITY           SKY/WX    TMP DP  RH WIND       PRES   REMARKS
CRAWFORDSVL +  PTSUNNY   81  70  68 W7          N/A
GREENCASTLE +  PTSUNNY   86  68  54 CALM      30.00S
LAFAYETTE      CLOUDY    82  75  79 W5        29.98S
TERRE HAUTE    CLOUDY    87  74  64 CALM      29.99S HX  95

$$

INZ030>032-037>040-046>048-054>057-064-065-291800-
CENTRAL INDIANA

CITY           SKY/WX    TMP DP  RH WIND       PRES   REMARKS
ANDERSON       MOSUNNY   86  66  51 NW12      29.99
COLUMBUS       SUNNY     88  68  51 CALM      29.98
FISHERS *+     MOSUNNY   86  75  70 NW8       29.98S HX  95
FRANKFORT +    CLOUDY    83  75  74 W8        30.01S
GREENWOOD *+   MOSUNNY   88  68  51 W5        29.99F
INDIANAPOLIS   PTSUNNY   89  71  55 W5        29.97F HX  95
-EAGLE CREEK   PTSUNNY   88  73  61 NW8       29.98S HX  95
KOKOMO *+      CLOUDY    84  73  70 NW12G17   29.98S
MARION +       PTSUNNY   83  74  73 NW7       29.98F
MT COMFORT *+  MOSUNNY   88  72  58 W8        29.99S
SHELBYVILLE    MOSUNNY   88  76  67 SW6       29.97F HX  99
ZIONSVILLE +   MOSUNNY   87  73  62 NW9       29.99F

$$

INZ033-034-041-042-049-050-058-059-291800-
EAST CENTRAL INDIANA

CITY           SKY/WX    TMP DP  RH WIND       PRES   REMARKS
MUNCIE         PTSUNNY   86  73  65 W12       29.97S

$$

INZ060-061-067>069-081>083-085>088-291800-
SOUTHWEST INDIANA

CITY           SKY/WX    TMP DP  RH WIND       PRES   REMARKS
EVANSVILLE     PTSUNNY   87  76  69 W5        29.99F HX  97
HUNTINGBURG *+ PTSUNNY   88  75  66 W7        30.00R HX  97
WASHINGTON +   PTSUNNY   86  76  71 SW5       29.98S HX  96

$$

INZ062-063-066-070>080-084-089>092-291800-
SOUTH CENTRAL AND SOUTHEAST INDIANA

CITY           SKY/WX    TMP DP  RH WIND       PRES   REMARKS
BLOOMINGTON    MOSUNNY   89  76  65 CALM      29.99S HX 100
MADISON *+     MOSUNNY   90  73  58 SW3       30.01S HX  98
NORTH VERNON + MOSUNNY   90  77  66 SW5       29.99F HX 102
SEYMOUR +      SUNNY     91  73  55 CALM      29.98S HX 100

$$




USA.gov is the U.S. government's official web portal to all federal, state and local government web resources and services.